ONEWEB-0008, 44059

Orbit data source: Space-Track

ONEWEB-0008, 44059 is a payload satellite owned by One Web (UK) in LEO that was launched on Wed, 27 Feb 2019 UTC via a SOYUZ-ST-B launch vehicle from the French Guiana (FRGUI). Payload-class satellites include a variety of spacecraft equipped with specific instruments for various scientific and technological missions. These include communications satellites like Starlink; space stations such as the ISS; scientific satellites like the Hubble; Earth observation satellites from companies like Planet Labs, Umbra, and HawkEye 360; GPS; miniature CubeSats for education and research; and military/defense satellites.

Loading next visibility...
Identifier
44059, 2019-010C
Orbit
LEO
Last TLE update
13 hours ago
Origin
Manufacturer
Airbus/Toulouse
Mission
Operational Commercial Communications
Bus & Motor
ARROW, Unknown motor
Mass
148 kg wet, ~140 kg dry
Launch date (UTC)
2019-02-27 (6 years ago)
Launch vehicle
SOYUZ-ST-B
Launch site
French Guiana (FRGUI)
Object type
Payload
Rocket body
Debris
Shape & HBR
Trap Box + 2 Pan, 5 m
Radar Cross Section
2.957 m², Large (>1 m²)

Expand to show TLE details & history

TLE from 13 hours ago
0 ONEWEB-0008
1 44059U 19010C   25181.89389748 -.00000033  00000-0 -12009-3 0  9999
2 44059  87.9050 298.8028 0001756  96.4853 263.6478 13.16594966305503
Epoch: 2025-06-30T21:27Z
TLE epoch observation values (Epoch: 2025-06-30T21:27:12.742Z)
Latitude
Longitude
57.80255°
Altitude
1,200.798 km
Speed
7.253 km/s
True Right ascension
19h 55m 12s
True Declination
0° 00' 00"
Sunlit
Object was in full shadow at epoch
Visualization orbit readout
Latitude
52.42333°
Longitude
60.40556°
Altitude
1,205.336 km
Speed
7.257 km/s
Apparent Right ascension
14h 43m 14s
Apparent Declination
37° 14' 60"
Sunlit
Object is in daylight
Visualization observer readout
Local Sidereal Time
22:07:36
Azimuth
311.108° NW
Elevation
9.712°
Doppler factor
1
Orbital elements
Apogee altitude
1,196.194 km
Perigee altitude
1,193.535 km
Semi-major axis
7,573.001 km
Eccentricity
0.00018
Inclination
87.905°
RAAN
298.8028°
Arg. of periapsis
96.4853°
True anomaly
Unknown
Mean anomaly
263.6478°
Eccentric anomaly
Unknown
Mean motion
3.29337 °/min
Orbital period
109.31 mins
BSTAR
-0.00012009
Loading maneuver chart data...
Loading SW <> Apogee altitude chart data...
Loading historical data...
Loading historical data...
Loading historical data...
Loading historical data...
Loading historical data...
Loading historical data...
Loading historical data...
Other satellites on launch #10 in the year 2019 (2019-02-27 UTC)

ONEWEB-0008 Visibility forecast

Observer location: undefined°, undefined°

Span
Click to sort rows by Start time (UTC) header in descending order
Start Az.
Max El. time (UTC)
Max El. Az.
Max El.
End time (UTC)
End Az.
5 mins2025-07-01 18:10:08.882Z51.174° ENE2025-07-01 18:12:08.882Z68.408° E13.119°2025-07-01 18:15:08.882Z94.185° ESE
13 mins2025-07-01 19:57:08.882Z1.313° NNE2025-07-01 20:03:08.882Z124.388° SE44.812°2025-07-01 20:10:08.882Z178.908° S
6 mins2025-07-01 21:49:08.882Z309.007° NW2025-07-01 21:51:08.882Z290.6° WNW15.535°2025-07-01 21:55:08.882Z255.531° W
5 mins2025-07-02 06:28:08.882Z89.914° E2025-07-02 06:30:08.882Z71.998° E14.268°2025-07-02 06:33:08.882Z45.837° ENE
12 mins2025-07-02 08:13:08.882Z178.301° S2025-07-02 08:18:08.882Z176.163° S44.621°2025-07-02 08:25:08.882Z0.727° NNE
5 mins2025-07-02 10:07:08.882Z270.991° WNW2025-07-02 10:09:08.882Z289.2° WNW14.405°2025-07-02 10:12:08.882Z315.331° NNW
|